This is the latest recevied weather packets stored in our database for station/object KD2PO-13. If no packets are shown the sender has not sent any weather packets the latest 10 day(s).
| Time | Temp. | Humidity | Pressure | Rain* | Wind** | Luminosity | Snow |
|---|---|---|---|---|---|---|---|
| 1777489638 | 11.11° C | 95% | 0 hPa | 3.56 mm | - | - | - |
| 1777488737 | 11.11° C | 95% | 0 hPa | 3.56 mm | - | - | - |
| 1777488437 | 11.11° C | 94% | 0 hPa | 3.3 mm | - | - | - |
| 1777487837 | 11.67° C | 94% | 0 hPa | 1.78 mm | - | - | - |
| 1777487536 | 11.67° C | 94% | 0 hPa | 1.78 mm | - | - | - |
| 1777487238 | 11.67° C | 93% | 0 hPa | 1.78 mm | - | - | - |
| 1777486337 | 11.67° C | 91% | 0 hPa | 0 mm | - | - | - |
| 1777486037 | 11.67° C | 91% | 0 hPa | 0 mm | - | - | - |
| 1777485737 | 12.22° C | 91% | 0 hPa | 0 mm | - | - | - |
| 1777485437 | 12.22° C | 91% | 0 hPa | 0 mm | - | - | - |
| 1777485137 | 12.22° C | 90% | 0 hPa | 0 mm | - | - | - |
| 1777484837 | 12.22° C | 90% | 0 hPa | 0 mm | - | - | - |
| 1777484237 | 12.78° C | 89% | 0 hPa | 0 mm | - | - | - |
| 1777483937 | 12.78° C | 90% | 0 hPa | 0 mm | - | - | - |
| 1777483638 | 12.78° C | 90% | 0 hPa | 0 mm | - | - | - |
| 1777483337 | 12.22° C | 92% | 0 hPa | 0 mm | - | - | - |
| 1777483037 | 12.22° C | 91% | 0 hPa | 0.51 mm | - | - | - |
| 1777482737 | 12.22° C | 91% | 0 hPa | 0.51 mm | - | - | - |
| 1777482437 | 12.22° C | 90% | 0 hPa | 0.51 mm | - | - | - |
| 1777481836 | 12.22° C | 92% | 0 hPa | 0.51 mm | - | - | - |
| 1777480637 | 11.11° C | 93% | 0 hPa | 0.51 mm | - | - | - |
| 1777480037 | 11.11° C | 92% | 0 hPa | 0.51 mm | - | - | - |
| 1777479736 | 11.11° C | 90% | 0 hPa | 0.51 mm | - | - | - |
| 1777479437 | 11.67° C | 87% | 0 hPa | 0 mm | - | - | - |
| 1777479137 | 11.67° C | 86% | 0 hPa | 0 mm | - | - | - |
* Rain latest hour (hover to see other rain measurements)
** Current wind speed in m/s (hover to see current wind gust speed)